Weather reports worldwide

Advertisment
Cagliari/Elmas, Italy (16560): temperature & dewpoint: 17.01.2019 03:00:00 - 23.01.2019 03:00:00 (CET)Cagliari/Elmas, Italy (16560): wind speed: 17.01.2019 03:00:00 - 23.01.2019 03:00:00 (CET)Cagliari/Elmas, Italy (16560): wind direction: 17.01.2019 03:00:00 - 23.01.2019 03:00:00 (CET)Cagliari/Elmas, Italy (16560): reduced air pressure: 17.01.2019 03:00:00 - 23.01.2019 03:00:00 (CET)Cagliari/Elmas, Italy (16560): visibility: 17.01.2019 03:00:00 - 23.01.2019 03:00:00 (CET)Cagliari/Elmas, Italy (16560): precipitation: 17.01.2019 03:00:00 - 23.01.2019 03:00:00 (CET)
Date & Time tt [°C] td [°C] ff [km/h] ff [kn] dd ppp [hPa] vv [km] rr [mm]
23.01.2019 03:00:00 5,0 4,0 5 3 NW - 10 -
23.01.2019 02:00:00 5,0 4,0 13 7 N - 10 -
23.01.2019 01:00:00 4,8 3,7 4 2 - 1005,9 10 -
23.01.2019 00:00:00 4,0 2,0 9 5 NE - 10 -
22.01.2019 23:00:00 3,0 2,0 - - - - 10 -
22.01.2019 22:00:00 4,6 2,2 9 5 NNW 1006,9 10 0,0
22.01.2019 21:00:00 6,0 1,0 9 5 WNW - 10 -
22.01.2019 20:00:00 5,0 1,0 9 5 N - 10 -
22.01.2019 19:00:00 7,0 1,9 9 5 WNW 1007,4 10 -
22.01.2019 18:00:00 9,0 1,0 22 12 W - 10 -
22.01.2019 17:00:00 10,0 4,0 18 10 NW - 10 -
22.01.2019 16:00:00 10,6 3,9 18 10 NW 1007,7 10 0,0
22.01.2019 15:00:00 11,0 4,0 21 11 NNW - 10 -
22.01.2019 14:00:00 11,0 5,0 26 14 WNW - 8 -
22.01.2019 13:00:00 10,6 5,1 18 10 WNW 1009,5 10 -
22.01.2019 12:00:00 7,0 5,0 35 19 W - 3,0 -
22.01.2019 11:00:00 11,0 6,0 15 8 NNW - 10 -
22.01.2019 10:00:00 9,5 5,7 11 6 NW 1010,8 10 0,0
22.01.2019 09:00:00 7,0 5,0 15 8 NNW - 10 -
22.01.2019 08:00:00 7,0 5,0 18 10 W - 10 -
22.01.2019 07:00:00 7,5 5,1 24 13 NW 1010,0 10 -
22.01.2019 06:00:00 6,0 5,0 15 8 NW - 10 -
22.01.2019 05:00:00 5,0 4,0 8 4 NNW - 10 -
22.01.2019 04:00:00 5,0 3,6 11 6 N 1010,3 10 0,0
22.01.2019 03:00:00 - - - - - - - -
22.01.2019 02:00:00 7,0 4,0 9 5 NW - 10 -
22.01.2019 01:00:00 6,4 4,3 16 9 NW 1010,3 10 -
22.01.2019 00:00:00 8,0 5,0 21 11 WNW - 10 -
21.01.2019 23:00:00 8,0 6,0 24 13 NW - 10 -
21.01.2019 22:00:00 8,3 6,0 22 12 NNW 1008,9 10 0,0
21.01.2019 21:00:00 9,0 6,0 24 13 NNW - 10 -
21.01.2019 20:00:00 8,0 7,0 21 11 NW - 10 -
21.01.2019 19:00:00 8,4 7,4 21 11 NNW 1007,3 8 -
21.01.2019 18:00:00 9,0 8,0 21 11 NW - 3,0 -
21.01.2019 17:00:00 9,0 8,0 28 15 NNW - 9 -
21.01.2019 16:00:00 9,3 8,2 28 15 NNW 1005,4 9 0,0
21.01.2019 15:00:00 11,0 10,0 11 6 WNW - 8 -
21.01.2019 14:00:00 11,0 10,0 9 5 NW - 8 -
21.01.2019 13:00:00 10,5 9,2 13 7 WNW 1006,0 10 -
21.01.2019 12:00:00 11,0 9,0 16 9 E - 10 -
21.01.2019 11:00:00 11,0 8,0 18 10 E - 10 -
21.01.2019 10:00:00 10,3 8,1 24 13 E 1006,6 8 0,0
21.01.2019 09:00:00 10,0 8,0 18 10 E - 7 -
21.01.2019 08:00:00 10,0 9,0 24 13 E - 7 -
21.01.2019 07:00:00 10,5 8,9 21 11 E 1006,8 9 -
21.01.2019 06:00:00 10,0 9,0 16 9 ENE - 5 -
21.01.2019 05:00:00 - - - - - - - -
21.01.2019 04:00:00 10,7 7,6 21 11 E 1007,4 10 0,0
21.01.2019 03:00:00 11,0 6,0 9 5 E - 10 -
21.01.2019 02:00:00 11,0 6,0 15 8 E - 10 -
21.01.2019 01:00:00 11,0 6,5 15 8 ESE 1010,0 10 -
21.01.2019 00:00:00 11,0 6,0 15 8 E - 10 -
20.01.2019 23:00:00 11,0 6,0 16 9 E - 10 -
20.01.2019 22:00:00 10,6 5,8 13 7 E 1010,7 10 0,0
20.01.2019 21:00:00 10,0 6,0 11 6 E - 10 -
20.01.2019 20:00:00 11,0 6,0 13 7 E - 10 -
20.01.2019 19:00:00 10,5 6,6 9 5 E 1011,0 10 -
20.01.2019 18:00:00 11,0 7,0 8 4 SSE - 10 -
20.01.2019 17:00:00 12,0 7,0 9 5 SE - 10 -
20.01.2019 16:00:00 11,8 6,7 9 5 SSE 1010,9 10 0,0
20.01.2019 15:00:00 12,0 4,0 8 4 S - 10 -
20.01.2019 14:00:00 14,0 6,0 9 5 SSW - 10 -
20.01.2019 13:00:00 12,6 5,3 9 5 SSW 1012,2 10 -
20.01.2019 12:00:00 12,0 6,0 8 4 W - 10 -
20.01.2019 11:00:00 9,0 6,0 8 4 NW - 10 -
20.01.2019 10:00:00 7,4 5,3 5 3 N 1013,5 10 0,0
20.01.2019 09:00:00 3,0 3,0 11 6 NNW - 10 -
20.01.2019 08:00:00 2,0 2,0 8 4 NNW - 10 -
20.01.2019 07:00:00 3,0 2,1 11 6 NW 1012,7 10 -
20.01.2019 06:00:00 4,0 3,0 13 7 NNW - 10 -
20.01.2019 05:00:00 - - - - - - - -
20.01.2019 04:00:00 3,8 3,0 9 5 NNW 1012,7 10 0,0
20.01.2019 03:00:00 4,0 3,0 13 7 NNW - 10 -
20.01.2019 02:00:00 4,0 3,0 11 6 NNW - 8 -
20.01.2019 01:00:00 3,9 3,1 8 4 NNW 1013,2 8 -
20.01.2019 00:00:00 6,0 5,0 8 4 NW - 8 -
19.01.2019 23:00:00 8,0 6,0 2 1 - - 10 -
19.01.2019 22:00:00 8,9 6,9 8 4 ESE 1013,4 10 0,0
19.01.2019 21:00:00 10,0 7,0 2 1 - - 10 -
19.01.2019 20:00:00 10,0 7,0 4 2 NNE - 10 -
19.01.2019 19:00:00 10,0 7,0 4 2 - 1013,5 10 -
19.01.2019 18:00:00 11,0 7,0 4 2 - - 10 -
19.01.2019 17:00:00 11,0 5,0 11 6 S - 10 -
19.01.2019 16:00:00 11,9 6,3 5 3 SSE 1013,7 10 0,0
19.01.2019 15:00:00 12,0 5,0 9 5 S - 10 -
19.01.2019 14:00:00 13,0 5,0 8 4 S - 10 -
19.01.2019 13:00:00 11,7 4,2 4 2 - 1014,9 10 -
19.01.2019 12:00:00 10,0 4,0 5 3 NW - 10 -
19.01.2019 11:00:00 8,0 4,0 5 3 WNW - 10 -
19.01.2019 10:00:00 6,7 3,7 8 4 NNW 1016,0 10 0,0
19.01.2019 09:00:00 4,0 3,0 5 3 NW - 10 -
19.01.2019 08:00:00 5,0 3,0 5 3 NW - 10 -
19.01.2019 07:00:00 4,2 2,4 4 2 - 1015,5 10 -
19.01.2019 06:00:00 4,0 2,0 4 2 N - 10 -
19.01.2019 05:00:00 4,0 2,0 8 4 NW - 10 -
19.01.2019 04:00:00 3,6 2,4 9 5 NNW 1015,9 10 0,0
19.01.2019 03:00:00 - - - - - - - -
19.01.2019 02:00:00 5,0 3,0 13 7 NNW - 10 -
19.01.2019 01:00:00 6,0 3,6 11 6 WNW 1016,5 10 -
19.01.2019 00:00:00 6,0 3,0 9 5 NNW - 10 -
18.01.2019 23:00:00 7,0 4,0 5 3 NNW - 10 -
18.01.2019 22:00:00 7,2 3,5 13 7 NW 1016,0 10 0,0
18.01.2019 21:00:00 7,0 4,0 9 5 NNW - 10 -
18.01.2019 20:00:00 9,0 4,0 11 6 WNW - 10 -
18.01.2019 19:00:00 9,6 3,8 18 10 NNW 1015,6 10 -
18.01.2019 18:00:00 10,0 4,0 26 14 NNW - 10 -
18.01.2019 17:00:00 12,0 5,0 22 12 NNW - 10 -
18.01.2019 16:00:00 13,2 5,8 29 16 NNW 1014,3 10 0,0
18.01.2019 15:00:00 15,0 7,0 21 11 NNW - 10 -
18.01.2019 14:00:00 14,0 7,0 22 12 NNW - 10 -
18.01.2019 13:00:00 12,8 8,8 9 5 W 1014,7 10 -
18.01.2019 12:00:00 10,0 9,0 13 7 NNW - 10 -
18.01.2019 11:00:00 8,0 7,0 9 5 NW - 8 -
18.01.2019 10:00:00 6,8 6,1 11 6 NNW 1015,7 8 0,0
18.01.2019 09:00:00 6,0 5,0 9 5 NNW - 7 -
18.01.2019 08:00:00 5,0 4,0 5 3 NNW - 5 -
18.01.2019 07:00:00 6,1 5,5 5 3 WNW 1014,7 9 -
18.01.2019 06:00:00 5,0 5,0 5 3 - - 9 -
18.01.2019 05:00:00 5,0 4,0 15 8 NW - 8 -
18.01.2019 04:00:00 3,7 3,0 4 2 - 1015,1 9 0,0
18.01.2019 03:00:00 4,0 3,0 8 4 NW - 10 -
18.01.2019 02:00:00 4,0 4,0 13 7 NNW - 10 -
18.01.2019 01:00:00 4,6 3,8 11 6 NNW 1016,3 10 -
18.01.2019 00:00:00 8,0 6,0 5 3 WNW - 10 -
17.01.2019 23:00:00 7,0 6,0 11 6 NNW - 10 -
17.01.2019 22:00:00 8,1 6,2 9 5 N 1016,5 10 0,0
17.01.2019 21:00:00 8,0 6,0 11 6 NNW - 10 -
17.01.2019 20:00:00 9,0 7,0 11 6 NNW - 10 -
17.01.2019 19:00:00 10,1 8,2 5 3 WNW 1016,0 10 -
17.01.2019 18:00:00 11,0 9,0 5 3 SSW - 10 -
17.01.2019 17:00:00 - - - - - - - -
17.01.2019 16:00:00 14,4 7,5 9 5 SSW 1015,9 10 0,0
17.01.2019 15:00:00 14,0 8,0 13 7 SSW - 10 -
17.01.2019 14:00:00 15,0 8,0 5 3 NW - 10 -
17.01.2019 13:00:00 14,9 7,1 9 5 NW 1016,7 10 -
17.01.2019 12:00:00 14,0 9,0 13 7 NNW - 10 -
17.01.2019 11:00:00 11,0 8,0 11 6 NNW - 10 -
17.01.2019 10:00:00 7,5 6,9 8 4 NNW 1017,9 8 0,0
17.01.2019 09:00:00 4,0 3,0 11 6 NNW - 6 -
17.01.2019 08:00:00 3,0 2,0 5 3 NNW - 5 -
17.01.2019 07:00:00 3,2 2,7 9 5 NNW 1017,4 7 -
17.01.2019 06:00:00 4,0 4,0 9 5 NNW - 6 -
17.01.2019 05:00:00 - - - - - - - -
17.01.2019 04:00:00 4,3 3,8 9 5 NNW 1018,0 5 0,0
17.01.2019 03:00:00 5,0 4,0 5 3 N - 5 -

tt = temperature
td = dewpoint
ff = wind speed
dd = wind direction
ppp = reduced air pressure
vv = visibility
rr = precipitation

Next stations